Location: Unspecified
(0.0000°N, 0.0000°E)
Time: 13:26:15
(UTC+02:00)

ARIANE 5 DEB (SYLDA) - Visible Passes

Search period start: 16 September 2014 00:00
Search period end: 26 September 2014 00:00
Orbit: 148 x 2913 km, 1.4° (Epoch: 16 September)

Date Brightness Start Highest point End Pass type
(mag) Time Alt. Az. Time Alt. Az. Time Alt. Az.
16 Sep 2.2 07:02:39 27° WSW 07:03:55 67° S 07:08:17 10° E visible
16 Sep 4.5 21:43:16 10° W 21:56:29 85° N 21:57:45 69° ENE visible
16 Sep 7.1 23:52:48 10° W 23:53:02 11° W 23:53:02 11° W visible
17 Sep 5.3 06:09:59 11° E 06:09:59 11° E 06:10:09 10° E visible
17 Sep 5.4 20:30:08 10° W 20:45:33 85° N 20:53:00 19° E visible
17 Sep 5.4 22:38:24 10° W 22:46:49 49° W 22:46:49 49° W visible
18 Sep 1.4 06:53:09 54° SSW 06:53:21 58° S 06:56:18 10° E visible
18 Sep 5.1 21:04:02 10° W 21:18:14 86° N 21:22:55 35° E visible
18 Sep 6.2 23:10:00 10° W 23:15:07 29° W 23:15:07 29° W visible
19 Sep 1.6 07:15:30 17° WSW 07:16:53 61° S 07:19:52 10° E visible
19 Sep 5.0 21:14:22 10° W 21:27:58 87° N 21:31:52 42° E visible
19 Sep 6.4 23:18:07 10° W 23:22:27 26° W 23:22:27 26° W visible
20 Sep 1.3 07:16:50 16° WSW 07:18:05 59° S 07:20:39 10° E visible
20 Sep 5.1 21:01:11 10° W 21:14:34 87° N 21:19:38 33° E visible
20 Sep 6.0 23:02:44 10° W 23:08:35 34° W 23:08:35 34° W visible
21 Sep 1.1 06:56:55 49° SSE 06:56:55 49° SSE 06:58:38 10° E visible
21 Sep 5.4 20:24:36 10° W 20:37:46 87° N 20:46:02 16° E visible
21 Sep 5.0 22:23:46 10° W 22:33:20 65° W 22:33:20 65° W visible
22 Sep 4.9 21:21:22 10° W 21:33:12 89° N 21:36:30 47° E visible
22 Sep 6.4 23:18:12 10° W 23:22:00 25° W 23:22:00 25° W visible
23 Sep 1.6 06:57:32 37° SE 06:57:32 37° SE 06:58:40 10° E visible
23 Sep 4.5 21:50:08 10° W 22:00:55 89° S 22:01:43 77° E visible
23 Sep 7.0 23:44:32 10° W 23:45:25 13° W 23:45:25 13° W visible
24 Sep 0.3 07:14:09 24° WSW 07:14:47 59° S 07:16:15 10° E visible
24 Sep 5.1 19:59:15 10° W 20:09:38 88° N 20:18:54 10° E visible
24 Sep 4.4 21:50:55 10° W 22:00:55 88° S 22:01:29 80° ESE visible
24 Sep 7.0 23:42:52 10° W 23:43:21 12° W 23:43:21 12° W visible
25 Sep 0.1 07:05:11 58° SSW 07:05:17 63° S 07:06:39 10° E visible
25 Sep 4.5 21:23:53 10° W 21:33:09 88° S 21:35:36 51° E visible
25 Sep 6.5 23:13:16 10° W 23:15:37 20° W 23:15:37 20° W visible
